Flag for United Kingdom Weather past 2 weeks in Coventry, England, United Kingdom

Now
45 °F

Rain. Partly cloudy.


Feels Like: 39 °F
Forecast: 43 / 52 °F
Wind: 10 mph from North

Location: Coventry Airport

Current Time: Apr 2, 2015 at 2:32:33 AM

Latest Report: Apr 2, 2015 at 1:50 AM


Visibility: 4 mi

Pressure: 29.98 "Hg

Humidity: 100%

Dew point: 45 °F

Location of CoventryLocation

Historic Weather in Coventry — Graph

°F

Coventry temperature yesterday

Maximum temperature yesterday: 50 °F (at 3:50 PM)
Minimum temperature yesterday: 37 °F (at 6:20 AM)
Average temperature yesterday: 45 °F

Past Weeks' High & Low Weather Summary

 TemperatureHumidityPressure
High57 °F (Mar 20, 2:20 PM)100% (Mar 18, 12:20 AM)30.57 "Hg (Mar 18, 12:20 AM)
Low32 °F (Mar 23, 6:50 AM)47% (Mar 26, 4:50 PM)29.24 "Hg (Mar 29, 12:20 PM)
Average46 °F74%30.01 "Hg
* Reported Mar 18 12:20 AM — Apr 2 1:20 AM, Coventry, Weather by CustomWeather, © 2015

Note: Actual official high and low records may vary slightly from our data, if they occured in-between our weather recording intervals... More about our weather records

Advertising

Coventry weather history for previous 24 hours

 ConditionsComfort  
Time TempWeatherWind HumidityBarometerVisibility
1:20 AM
Thu, Apr 2
45 °FRain. Partly cloudy.10 mph100%29.98 "Hg4 mi
12:50 AM50 °FPassing clouds.13 mph94%29.95 "HgN/A
12:20 AM46 °FPassing clouds.12 mph100%29.95 "HgN/A
11:50 PM
Wed, Apr 1
46 °FPassing clouds.12 mph93%29.98 "HgN/A
11:20 PM45 °FPassing clouds.5 mph100%29.98 "HgN/A
10:50 PM45 °FLight rain. Passing clouds.6 mph100%30.01 "Hg6 mi
10:20 PM45 °FRain. Fog.6 mph100%30.04 "Hg2 mi
9:50 PM46 °FRain. Passing clouds.12 mph87%30.04 "Hg6 mi
9:20 PM46 °FLight rain. Passing clouds.10 mph82%30.07 "HgN/A
8:50 PM46 °FPassing clouds.10 mph82%30.07 "HgN/A
8:20 PM46 °FPartly sunny.13 mph82%30.09 "HgN/A
7:50 PM46 °FLight rain. Partly sunny.13 mph76%30.09 "HgN/A
7:20 PM48 °FLight rain. Partly sunny.12 mph71%30.12 "HgN/A
6:50 PM48 °FLight rain. Broken clouds.15 mph71%30.12 "HgN/A
4:50 PM48 °FScattered showers. Broken clouds.16 mph71%30.15 "HgN/A
4:20 PM50 °FScattered showers. Broken clouds.18 mph62%30.15 "HgN/A
3:50 PM50 °FScattered showers. Broken clouds.18 mph62%30.18 "HgN/A
3:20 PM48 °FScattered showers. Scattered clouds.16 mph71%30.18 "HgN/A
2:50 PM45 °FScattered showers. Scattered clouds.20 mph76%30.18 "HgN/A
1:50 PM46 °FScattered showers. Broken clouds.13 mph66%30.21 "HgN/A
1:20 PM48 °FLight rain. Scattered clouds.18 mph62%30.21 "HgN/A
12:50 PM46 °FScattered showers. Scattered clouds.13 mph66%30.21 "HgN/A
12:20 PM48 °FScattered showers. Broken clouds.18 mph58%30.21 "HgN/A
11:50 AM48 °FScattered showers. Broken clouds.18 mph58%30.21 "HgN/A
11:20 AM46 °FPartly sunny.15 mph62%30.21 "HgN/A
10:50 AM46 °FPartly sunny.15 mph62%30.21 "HgN/A
10:20 AM46 °FPartly sunny.17 mph62%30.21 "HgN/A
9:50 AM45 °FPartly sunny.18 mph71%30.21 "HgN/A
9:20 AM45 °FScattered clouds.12 mph71%30.21 "HgN/A
8:50 AM43 °FPassing clouds.15 mph71%30.21 "HgN/A
8:20 AM41 °FPassing clouds.10 mph70%30.21 "HgN/A
7:50 AM39 °FSunny.10 mph75%30.21 "Hg10 mi
7:20 AM37 °FPassing clouds.7 mph75%30.18 "HgN/A
6:50 AM37 °FClear.7 mph75%30.18 "Hg10 mi
6:20 AM37 °FPassing clouds.7 mph75%30.18 "HgN/A
2:20 AM41 °FPassing clouds.17 mph66%30.09 "HgN/A
Weather by CustomWeather, © 2015

See weather overviewHow to use our weather pages